SCP
0 0 0 0 0 0 0 0 0 0 0 0 0 0 0 0 0 0 0 0 0 0 0 0 0 0 0 0 0 0 0 0 0 0 0 0 0 0 0 0 0 0 0
0 0 0 0 0 0 0 0 0 0 0 0 0 0 0 0 0 0 0 0 0 0 0 0 0 0 0 0 0 0 0 0 0 0 0 0 0 0 0 0 0 0 0
0 0 0 0 0 0 0 0 0 0 0 0 0 0 0 0 0 0 0 0 0 0 0 0 0 0 0 0 0 0 0 0 0 0 0 0 0 0 0 0 0 0 0
0 0 0 0 0 0 0 0 0 0 0 0 0 0 0 0 0 0 0 0 0 0 0 0 0 0 0 0 0 0 0 0 0 0 0 0 0 0 0 0 0 0 0
0 0 0 0 0 0 0 0 0 0 0 0 0 0 0 0 0 0 0 0 0 0 0 0 0 0 0 0 0 0 0 0 0 0 0 0 0 0 0 0 0 0 0
0 0 0 0 0 0 0 0 0 0 0 0 0 0 0 0 0 0 0 0 0 0 0 0 0 0 0 0 0 0 0 0 0 0 0 0 0 0 0 0 0 0 0
0 0 0 0 0 0 0 0 0 0 0 0 0 0 0 0 0 0 0 0 0 0 0 0 0 0 0 0 0 0 0 0 0 0 0 0 0 0 0 0 0 0 0
0 0 0 0 0 0 0 0 0 0 0 0 0 0 0 0 0 0 0 0 0 0 0 0 0 0 0 0 0 0 0 0 0 0 0 0 0 0 0 0 0 0 0
0 0 0 0 0 0 0 0 0 0 0 0 0 0 0 0 0 0 0 0 0 0 0 0 0 0 0 0 0 0 0 0 0 0 0 0 0 0 0 0 0 0 0
0 1 1 1 1 1 1 1 1 1 1 0 0 0 0 0 0 0 0 0 0 0 0 0 0 0 0 0 0 0 0 0 0 0 0 0 0 1 1 1 1 1 0
0 1 1 1 1 1 1 1 1 1 1 1 1 0 0 0 0 0 0 0 0 0 0 0 0 0 0 0 1 0 0 0 0 0 1 1 1 1 1 1 1 1 1
0 0 1 1 1 1 1 1 1 1 1 1 1 1 1 0 0 0 0 0 0 0 0 0 0 0 0 1 1 1 1 1 1 1 1 1 1 1 1 1 1 1 1
0 0 1 1 1 1 1 1 1 1 1 1 1 1 1 1 0 0 0 0 0 0 0 0 0 0 0 1 1 1 1 1 1 1 1 1 1 1 1 1 1 1 1
0 0 1 1 1 1 1 1 1 1 1 1 1 1 1 1 1 1 1 1 1 1 1 1 1 1 0 1 1 1 1 1 1 1 1 1 1 1 1 1 1 1 1
0 0 1 1 1 1 1 1 1 1 1 1 1 1 1 1 1 1 1 1 1 1 1 1 1 1 1 1 1 1 1 1 1 1 1 1 1 1 1 1 1 1 1
0 1 1 1 1 1 1 1 1 1 1 1 1 1 1 1 1 1 1 1 1 1 1 1 1 1 1 1 1 1 1 1 1 1 1 0 0 0 0 0 0 0 0
0 1 1 1 1 1 1 1 1 1 1 1 1 1 1 1 1 1 1 1 1 1 1 1 1 1 1 1 0 0 1 1 1 1 0 0 0 0 0 0 0 0 0
1 1 1 1 1 1 1 1 1 1 1 1 1 1 1 1 1 1 1 1 1 1 1 1 1 1 1 0 0 0 0 0 0 0 0 0 0 0 0 0 0 0 0
1 1 1 1 1 1 1 1 1 1 1 1 1 1 1 1 1 1 1 1 1 1 1 1 1 1 1 0 0 0 0 0 0 0 0 0 0 0 0 0 0 0 0
1 1 1 1 1 1 1 1 1 1 1 1 1 1 1 1 1 1 1 1 1 1 1 1 1 1 1 0 0 0 0 0 0 0 0 0 0 0 0 0 0 0 0
1 1 1 1 1 1 1 1 1 1 1 1 1 1 1 1 1 1 1 1 1 1 1 1 1 1 1 0 0 0 0 0 0 0 0 0 0 0 0 0 0 0 0
1 1 1 1 1 1 1 1 1 1 1 1 1 1 1 1 1 1 1 1 1 1 1 1 1 1 0 0 0 0 0 0 0 0 0 0 0 0 0 0 0 0 0
1 1 1 1 1 1 1 1 1 1 1 1 1 1 1 1 1 1 1 1 1 0 0 0 0 0 0 0 0 0 0 0 0 0 0 0 0 0 0 0 0 0 0
1 1 1 1 1 1 1 1 1 1 1 1 1 1 1 1 1 0 0 0 0 0 0 0 0 0 0 0 0 0 0 0 0 0 0 0 0 0 0 0 0 0 0
1 1 1 1 1 1 1 1 1 1 1 1 1 1 1 0 0 0 0 0 0 0 0 0 0 0 0 0 0 0 0 0 0 0 0 0 0 0 0 0 0 0 0
1 1 1 1 1 1 1 1 1 1 1 1 1 1 0 0 0 0 0 0 0 0 0 0 0 0 0 0 0 0 0 0 0 0 0 0 0 0 0 0 0 0 0
Wind_Speed
9 9 10 10 9 9 9 8 8 7 6 4 4 4 4 3 3 3 3 3 3 3 2 2 2 2 1 1 2 1 1 1 0 1 1 1 1 1 1 1 1 1 1
9 9 10 10 10 10 10 9 9 8 8 5 4 4 3 3 3 3 3 4 4 4 4 3 3 3 2 3 2 2 2 1 1 2 2 2 3 3 1 2 2 1 1
9 10 10 11 11 11 11 9 9 9 8 7 5 4 4 3 4 4 4 4 4 4 3 3 3 3 4 2 3 3 3 2 2 2 3 2 1 0 2 2 2 1 1
9 9 11 11 11 11 10 10 9 9 8 8 7 7 5 5 4 3 3 4 4 4 4 4 4 4 3 3 4 3 3 3 3 2 2 2 3 2 1 2 2 2 2
8 9 10 10 10 10 10 9 9 8 8 8 8 8 7 5 4 4 4 4 4 4 4 4 4 4 4 3 3 3 4 3 3 3 2 2 3 4 3 2 2 2 2
7 8 8 8 8 9 9 9 9 9 9 9 9 9 8 7 6 5 5 5 4 4 5 5 4 4 4 4 4 4 5 4 3 3 3 3 3 3 3 3 3 2 2
7 7 8 8 7 8 9 9 10 9 9 9 9 9 9 9 8 7 6 5 4 4 5 5 4 4 4 4 4 5 4 5 5 5 4 3 4 3 3 3 3 3 2
6 6 7 7 7 8 9 9 9 9 9 9 9 9 9 8 7 8 7 6 5 4 4 5 5 5 5 6 5 5 5 4 5 6 5 4 4 4 4 4 4 4 4
4 5 6 7 7 8 8 8 8 9 9 9 9 8 9 8 7 7 8 6 5 5 5 5 6 6 6 6 6 5 5 5 6 6 6 5 4 4 4 4 4 5 4
3 4 5 5 5 6 6 7 7 8 8 9 8 7 8 9 8 8 7 6 6 6 6 6 7 6 6 6 6 6 5 6 6 5 5 5 5 4 4 4 4 5 5
2 3 3 4 4 4 5 5 6 6 7 7 7 7 8 8 8 8 8 8 7 7 7 7 7 7 7 7 7 7 6 7 7 6 6 6 6 5 4 4 5 5 5
1 2 3 4 3 3 4 4 4 4 5 5 7 8 8 8 8 9 9 8 8 8 8 8 8 8 8 7 8 8 7 7 7 7 6 7 5 6 6 5 6 4 4
1 2 3 3 2 3 3 3 3 3 4 5 6 7 7 8 8 8 8 8 9 8 8 8 8 8 8 8 8 8 7 7 7 7 7 6 6 6 5 6 5 4 5
1 1 2 2 2 2 2 2 3 3 3 4 5 6 6 7 8 8 8 8 8 8 8 8 8 8 8 8 7 7 7 7 7 7 7 7 7 7 6 6 6 5 5
0 1 1 1 1 1 2 2 3 3 3 4 5 5 6 6 7 7 7 8 8 8 8 8 8 8 8 7 7 7 7 7 7 7 6 6 5 5 5 5 5 5 5
1 0 1 1 1 1 2 2 3 3 3 4 4 4 5 5 6 7 7 7 8 7 7 8 8 8 6 4 6 7 7 6 6 6 6 6 6 5 5 5 5 5 6
1 1 1 1 1 2 2 2 2 3 3 4 4 4 4 5 5 6 6 6 7 7 7 7 7 6 5 5 6 7 6 6 5 5 5 5 3 4 4 4 6 5 5
2 2 2 2 2 1 1 2 2 3 3 3 3 3 4 4 4 5 5 6 5 6 5 5 5 5 4 5 5 6 7 5 5 4 4 4 3 3 2 4 4 4 3
3 3 3 1 1 1 1 1 2 2 3 4 3 3 4 4 4 5 5 5 4 5 5 4 4 4 3 4 4 5 5 4 4 4 4 4 4 2 2 4 4 3 2
2 3 1 1 1 1 1 1 1 2 3 3 3 3 3 4 4 4 4 4 4 4 4 3 4 4 4 4 5 6 4 4 4 3 4 3 2 2 3 5 4 4 3
2 2 1 1 1 1 1 1 1 2 2 2 2 3 3 3 4 3 3 3 3 3 3 3 3 3 3 4 5 6 4 4 4 3 3 2 4 4 3 4 3 2 2
1 1 0 1 1 1 1 1 2 2 2 2 2 2 2 2 1 2 2 3 3 3 4 3 3 2 2 2 4 6 5 3 3 3 2 2 5 4 3 2 1 1 3
1 1 1 1 0 1 1 2 2 1 1 1 1 1 1 1 1 2 2 3 3 3 3 3 3 2 2 2 4 5 4 4 3 2 1 3 5 5 3 4 4 4 3
1 1 1 1 1 1 2 2 2 1 1 1 1 1 1 1 0 1 1 1 2 2 2 2 2 2 2 2 2 2 3 4 4 2 3 5 5 4 3 3 4 3 2
1 1 1 1 1 1 2 2 2 1 1 1 1 1 1 1 0 0 1 1 0 1 1 2 2 2 1 1 1 1 1 1 1 1 2 3 3 3 3 2 2 2 2
1 1 1 1 1 1 2 1 1 1 1 2 1 1 1 1 1 1 2 5 3 4 3 1 1 0 2 2 2 1 1 1 2 3 3 3 3 3 3 3 2 2 2
Wind_Direction
187 185 186 185 183 186 189 192 196 188 191 191 195 195 195 192 189 187 176 189 204 199 211 228 174 219 210 221 225 212 202 215 195 266 237 204 189 185 178 202 222 178 196
186 185 186 186 190 190 195 195 196 192 195 194 200 203 207 202 199 203 185 200 205 209 200 206 217 209 207 207 212 211 257 254 219 270 274 228 179 177 156 181 189 220 212
193 188 191 193 195 197 197 196 197 194 196 196 194 195 194 205 194 194 193 201 207 212 221 207 225 223 232 214 220 220 225 251 241 253 280 288 294 168 167 183 195 207 256
200 194 193 197 200 199 196 197 198 197 194 196 201 203 203 204 204 199 197 201 210 215 216 217 224 234 240 225 229 212 233 239 251 233 253 284 320 285 234 195 181 197 231
199 195 197 197 199 198 196 193 194 196 195 198 201 207 216 214 208 201 202 215 211 216 219 215 223 229 238 236 244 234 238 237 246 254 241 233 235 247 265 263 246 226 227
194 192 192 192 196 195 196 193 189 195 196 200 205 210 217 218 218 217 215 214 215 211 212 213 217 224 233 226 228 229 226 240 250 256 249 246 247 245 252 257 246 244 231
187 188 188 188 193 194 196 194 190 195 199 202 206 210 214 216 221 226 222 225 224 211 207 214 213 222 225 230 231 229 239 232 236 239 242 249 254 253 254 258 264 270 248
182 185 186 188 194 197 197 196 194 197 199 202 206 211 213 217 220 223 234 227 230 225 209 212 216 219 225 231 231 237 229 225 233 240 244 245 248 249 246 249 259 261 251
175 181 184 187 192 196 196 195 194 199 201 202 204 211 215 222 224 221 224 233 229 225 214 215 218 220 222 230 235 239 238 235 239 238 229 237 238 240 244 243 249 260 267
162 174 180 183 187 191 193 196 197 201 203 204 209 210 215 221 226 229 227 231 232 232 225 219 220 222 222 224 231 236 233 237 242 248 251 249 246 240 240 238 239 246 258
150 160 162 168 177 182 185 190 196 202 205 210 212 221 219 220 222 225 229 227 229 227 228 228 227 227 226 225 228 237 236 238 242 244 241 242 252 247 242 236 236 240 244
116 143 149 153 167 179 186 185 193 203 214 217 217 220 224 225 225 226 229 228 228 229 227 229 229 230 229 227 229 234 234 237 241 244 246 247 243 240 249 244 241 240 244
113 140 143 154 175 189 196 195 202 208 216 217 220 220 223 225 228 231 230 229 230 232 233 229 231 234 233 229 230 234 236 239 242 243 242 243 244 244 243 244 243 241 239
129 127 137 156 178 196 195 201 215 220 222 225 226 228 232 233 233 234 235 234 231 231 232 232 232 232 233 232 231 234 238 240 241 241 242 241 239 238 239 239 240 242 247
157 149 143 150 171 188 210 215 223 227 232 233 236 238 241 240 237 234 233 235 236 234 232 232 232 233 232 233 231 233 235 239 240 239 242 246 249 259 257 258 247 244 246
254 272 200 168 185 218 234 235 239 240 238 240 247 248 248 245 242 239 234 234 236 237 235 232 232 233 236 225 226 235 235 236 238 238 238 240 236 239 234 249 256 256 250
263 291 264 244 235 233 232 242 247 244 242 244 251 253 255 255 251 246 239 237 235 233 234 235 230 230 230 211 214 222 231 235 236 236 239 247 240 238 247 229 226 234 241
281 287 275 252 247 238 236 251 245 244 245 248 255 257 254 255 251 243 241 239 237 232 229 231 229 228 216 191 199 208 223 233 232 233 233 238 243 243 245 247 238 238 238
301 299 286 275 287 274 260 257 253 244 246 247 250 252 251 250 249 242 240 239 237 233 227 223 227 228 205 169 181 198 222 219 227 228 227 225 226 204 233 230 231 236 235
323 299 291 285 277 310 291 266 269 262 261 261 258 254 248 245 245 247 243 240 233 230 228 219 223 217 207 169 177 201 222 216 220 216 216 201 206 196 222 223 221 231 238
315 313 323 310 327 320 288 275 277 279 290 283 265 259 253 245 243 243 236 230 230 225 220 213 219 213 207 180 182 201 226 221 220 219 213 181 156 182 220 236 232 236 246
313 330 343 329 336 281 246 272 288 299 302 286 259 252 258 264 236 223 226 224 218 211 210 203 214 215 201 192 185 192 217 240 226 225 220 166 158 177 204 216 194 219 232
306 277 273 283 305 274 264 274 294 297 298 292 253 236 231 250 224 203 204 204 208 218 209 205 204 198 192 167 167 176 198 216 227 233 149 168 174 177 186 193 202 215 224
302 253 240 267 305 299 282 287 291 281 254 247 242 224 200 202 189 257 244 223 209 215 205 208 228 217 195 181 171 173 176 179 188 179 155 175 190 195 200 197 203 218 242
339 312 264 262 285 295 285 281 282 266 248 240 233 217 191 154 130 93 5 313 322 312 260 239 236 236 209 82 30 235 218 211 163 175 209 215 205 203 207 213 215 215 216
297 262 268 283 281 266 266 267 249 240 235 230 226 209 190 173 184 136 94 53 37 67 80 49 292 33 94 106 94 117 199 204 199 200 210 219 218 215 217 218 216 213 221